Presure
207 154 194 189 195 144 196 194 167 165 196 195 185 192 193 191 194 189 190 196 169 163 180 171 197 159 151 211 194 164 179 206 208 210 186 211 188 208 204 182 149 204 224 206 211
220 209 198 190 193 188 194 181 191 180 190 167 142 186 191 180 157 133 140 174 176 175 187 139 165 174 196 132 158 135 188 178 208 198 207 188 219 205 205 197 200 207 206 199 165
177 206 207 207 203 190 194 193 189 171 193 182 177 163 192 158 172 176 187 193 183 191 143 178 179 110 125 169 160 161 159 168 205 208 209 210 193 211 217 195 182 207 188 221 218
211 189 192 210 209 104 203 192 189 200 178 171 183 192 181 183 184 179 187 132 185 181 188 195 126 153 183 181 197 200 213 203 206 211 199 204 201 212 210 217 202 204 205 206 214
206 192 219 227 202 211 212 192 197 195 190 177 198 176 172 186 182 179 185 184 172 179 181 142 191 190 188 192 199 184 224 196 194 210 204 205 201 210 209 211 190 211 190 189 177
216 191 231 230 226 214 202 210 225 202 199 202 194 188 192 185 163 178 188 172 181 183 192 181 198 195 202 205 210 195 212 214 198 193 197 201 204 212 203 214 189 220 202 210 201
234 229 221 204 215 203 228 215 192 205 196 204 197 187 197 188 197 184 190 192 183 182 187 180 183 190 179 203 188 205 199 200 223 202 196 201 213 203 206 209 219 198 213 178 224
251 247 209 237 183 208 238 195 207 217 221 213 232 207 190 207 179 196 192 191 197 182 182 191 191 191 188 180 185 196 186 188 192 190 201 217 199 202 210 222 218 215 191 219 232
264 253 241 252 234 241 231 217 213 204 218 231 221 211 218 213 194 196 206 191 192 200 190 159 199 187 192 196 209 188 194 186 186 195 197 205 196 194 216 204 203 223 200 205 220
261 274 267 260 244 241 213 231 218 221 235 201 222 218 194 204 215 218 213 190 200 198 197 199 195 203 186 203 200 184 188 198 192 189 200 204 196 209 201 192 208 199 202 197 220
264 260 257 255 232 245 252 248 254 195 242 211 223 211 218 232 223 196 211 215 207 195 195 203 200 195 183 197 191 188 196 200 201 191 194 212 222 220 204 220 214 222 203 199 183
256 255 255 230 263 252 257 250 252 238 250 251 242 230 220 231 234 226 224 238 212 209 209 202 206 204 199 198 199 191 210 185 194 188 207 216 216 208 208 199 205 220 221 198 220
259 254 236 238 252 252 242 262 246 253 263 251 244 253 255 250 252 254 242 241 240 237 215 208 207 209 206 201 202 203 198 196 198 200 205 210 215 208 144 147 150 219 214 210 210
251 242 244 249 258 261 257 256 258 262 268 125 249 252 256 257 277 257 228 260 176 239 232 237 233 232 218 222 215 229 217 210 220 207 214 221 224 199 196 191 210 225 200 226 210
256 256 256 246 254 252 260 257 251 253 269 269 148 260 274 259 246 259 246 116 259 253 244 248 244 242 234 228 221 227 231 219 215 220 225 210 244 207 207 208 210 225 212 231 236
262 266 268 267 272 273 267 267 269 272 273 274 87 290 279 266 256 257 255 255 253 251 258 257 254 242 240 236 237 237 229 238 222 216 249 219 142 183 219 225 210 229 237 234 262
254 255 261 267 274 274 279 324 287 325 314 353 193 209 322 361 363 300 263 248 253 144 251 250 246 241 237 238 237 237 234 236 235 245 235 228 169 243 234 220 213 250 233 244 245
263 266 278 262 260 327 318 304 343 365 364 360 449 105 374 375 268 342 341 353 333 265 259 251 162 136 246 245 241 238 236 234 242 246 226 233 224 75 220 233 248 245 251 247 229
257 261 261 303 324 294 344 340 483 504 446 426 448 441 431 419 384 363 352 358 345 328 344 327 279 260 252 241 244 233 238 223 229 241 237 243 240 234 243 243 244 246 239 239 270
248 276 305 293 290 331 351 441 462 442 419 407 423 408 265 389 393 399 350 341 333 353 336 305 321 291 276 264 253 251 240 238 247 247 243 244 240 243 237 241 246 239 242 278 256
270 284 277 289 325 334 372 413 430 410 404 396 410 385 376 359 368 374 357 343 322 338 389 324 311 308 299 286 270 256 257 266 266 259 255 240 242 226 238 241 240 237 298 256 246
284 283 281 320 297 375 390 395 400 405 396 395 375 355 359 344 338 327 313 143 340 311 352 314 325 314 301 299 297 291 284 279 277 270 258 246 240 233 241 245 226 249 301 259 239
288 280 321 297 363 366 379 386 390 393 401 387 364 363 358 337 327 310 155 237 320 296 306 323 373 312 284 291 299 301 285 280 278 268 261 250 247 238 240 227 223 264 261 246 232
275 306 305 312 349 357 381 361 370 373 376 369 354 353 357 331 330 307 297 303 294 287 296 300 297 303 327 322 312 295 287 285 283 278 281 260 248 243 233 236 232 275 242 240 223
296 297 289 339 352 352 373 369 362 360 364 354 346 342 358 332 340 316 309 290 284 280 288 299 295 264 291 326 305 287 304 316 306 291 274 267 264 264 253 240 286 271 228 244 227
290 292 329 322 362 358 358 359 362 362 352 351 342 335 332 342 334 323 306 298 292 297 303 294 297 286 284 298 305 311 310 304 304 306 296 283 274 256 248 284 271 241 231 228 222
295 291 369 320 362 358 356 344 341 354 351 349 334 320 334 328 327 329 315 320 277 308 304 294 292 292 278 295 291 282 283 309 312 285 274 273 271 293 275 263 259 236 235 232 222
Wind_Speed
75 71 80 83 77 60 85 84 83 79 79 78 82 83 83 85 85 89 89 87 85 83 89 85 78 77 73 73 78 72 69 69 73 69 71 57 66 60 57 70 65 56 46 45 46
72 80 85 87 88 87 86 90 89 93 89 81 76 89 84 89 84 70 77 92 89 86 90 68 78 78 82 68 71 69 67 82 73 70 68 63 54 59 57 60 60 59 56 54 49
74 84 87 88 94 93 93 93 93 90 93 86 97 85 92 87 95 95 94 92 91 93 76 90 87 60 67 77 72 67 74 75 71 69 66 65 61 51 47 60 50 50 62 39 43
83 75 87 90 93 49 99 98 99 97 96 91 95 97 98 97 100 97 96 75 98 96 95 94 63 71 88 85 85 75 66 72 72 66 65 67 62 53 47 52 46 48 49 46 41
85 85 85 78 90 97 92 101 102 102 99 90 99 97 96 101 106 95 99 101 96 99 98 75 94 91 88 88 85 76 64 73 72 66 65 67 66 53 53 53 56 45 62 50 42
88 98 79 78 81 94 96 106 86 104 104 105 105 100 103 107 84 97 105 98 102 103 102 95 100 93 92 87 85 82 71 69 68 70 74 70 62 56 63 57 54 51 46 51 57
86 87 93 99 95 105 85 100 98 107 103 109 109 105 108 113 110 107 110 108 106 106 104 95 96 92 75 89 83 83 76 73 65 70 72 73 62 58 62 51 55 47 54 42 45
81 84 97 89 83 99 84 108 104 101 95 110 86 111 109 114 96 116 113 111 112 101 100 106 103 98 90 84 83 87 67 72 73 74 79 75 60 74 71 64 45 54 62 48 45
80 84 89 88 94 89 92 99 110 93 100 95 101 100 102 118 113 118 117 113 110 111 108 83 107 96 89 90 87 78 81 82 76 81 75 75 60 71 76 39 41 60 49 40 47
74 81 82 82 93 96 107 96 96 107 95 105 103 107 94 117 117 120 119 110 117 117 113 114 107 104 85 93 86 87 82 83 78 82 83 83 58 70 62 39 47 41 49 51 50
69 75 78 81 82 88 91 93 98 103 95 115 109 112 106 103 117 112 119 120 118 113 109 115 99 95 85 101 97 85 84 82 86 84 82 87 80 76 56 68 59 54 47 55 38
68 70 77 79 86 90 88 90 93 98 90 101 100 104 112 114 104 109 119 112 119 118 116 113 106 105 103 101 97 78 88 70 84 85 91 87 70 65 58 48 56 65 49 58 51
68 71 73 78 83 87 87 91 90 93 96 86 96 93 94 101 101 92 112 111 113 115 107 111 106 109 104 99 98 94 88 90 92 95 84 81 70 65 41 48 53 53 41 47 49
70 73 78 81 83 86 92 95 97 100 101 20 96 97 101 102 95 93 100 106 73 110 116 115 111 112 113 108 106 98 98 97 95 84 85 89 73 58 58 57 66 66 49 60 47
72 77 81 82 86 89 90 95 96 97 102 89 45 92 98 99 93 96 102 32 97 98 110 102 104 111 110 106 107 98 102 94 89 86 84 77 79 72 75 72 66 68 50 60 58
72 77 82 86 90 93 94 101 101 105 100 99 17 100 100 99 97 99 101 102 102 101 98 95 99 103 101 101 98 91 92 89 80 73 75 70 34 42 70 72 60 65 59 53 47
75 79 82 83 86 89 91 90 92 92 95 91 57 68 91 85 84 99 101 102 103 47 100 98 98 99 99 99 93 90 89 90 86 81 65 68 45 57 60 67 64 59 47 48 45
79 82 85 82 88 90 86 84 84 83 84 85 51 17 77 74 52 79 84 83 93 108 105 99 52 37 96 95 94 93 91 88 83 79 59 66 43 19 51 58 55 48 45 44 46
78 83 84 92 87 83 86 82 43 10 16 26 24 29 40 47 55 67 67 70 76 86 86 90 104 100 96 90 93 83 90 75 74 78 70 70 54 49 54 52 47 38 42 46 48
79 86 88 84 82 82 71 41 13 9 17 25 26 26 28 33 37 45 58 63 68 68 76 85 80 93 101 98 87 92 84 89 84 77 74 70 59 54 50 46 38 42 41 44 52
83 87 80 84 80 72 61 40 12 19 26 20 27 25 30 27 25 26 37 42 60 56 41 70 73 77 82 83 87 88 90 90 83 79 73 62 57 47 50 43 35 43 40 48 55
88 83 81 79 77 58 47 36 23 18 25 21 33 33 33 35 31 33 42 38 28 58 34 60 62 66 70 74 76 76 77 79 77 69 68 63 58 54 47 39 45 35 44 53 55
81 82 76 76 61 54 41 30 22 21 20 28 37 37 45 47 47 46 39 36 35 39 45 39 37 56 66 66 66 69 67 69 66 66 63 62 58 55 42 42 47 37 43 48 53
79 76 73 71 58 51 35 22 21 22 17 28 35 41 49 54 57 58 55 47 45 52 50 47 45 45 53 54 58 62 58 61 60 59 56 54 55 57 48 43 44 44 42 51 52
75 71 71 61 51 45 36 18 18 19 18 24 32 35 51 58 62 61 62 57 57 58 53 47 44 41 49 42 50 53 50 48 50 48 52 55 55 54 48 44 41 52 51 53 54
69 67 63 57 44 38 33 25 18 17 21 25 30 34 40 58 58 61 59 59 60 60 54 46 45 50 49 40 39 40 43 43 40 40 43 48 47 46 45 45 53 54 53 55 57
66 63 48 51 38 32 29 25 23 20 22 22 26 29 36 40 45 55 56 63 53 54 48 48 51 50 54 44 42 40 39 38 36 43 49 47 46 44 49 51 59 59 65 62 61
Wind_Direction
249 262 255 256 253 256 253 253 256 256 254 254 256 256 257 259 258 262 263 263 267 265 274 271 268 266 271 277 279 275 277 282 283 286 282 284 285 284 286 288 260 290 285 282 288
249 247 251 258 255 257 251 258 255 259 257 255 256 257 256 260 260 258 261 267 268 265 271 262 268 272 278 260 269 264 279 283 282 283 283 284 283 281 284 285 288 294 295 294 273
268 250 249 249 247 255 251 253 253 259 254 255 261 257 256 263 266 267 261 261 266 266 260 271 273 255 258 276 271 272 279 276 280 279 280 283 280 284 289 280 279 283 290 294 284
255 263 261 249 249 255 249 253 256 250 260 260 257 255 260 259 261 264 265 260 265 269 269 269 257 269 274 278 277 280 280 276 276 276 281 280 283 281 293 286 282 282 289 286 277
255 267 253 256 257 249 252 256 253 253 255 253 249 259 264 259 261 263 262 263 267 267 268 265 270 271 272 276 276 280 276 276 278 279 277 278 279 285 283 285 277 294 280 275 280
262 270 265 257 251 250 254 249 258 252 251 251 253 256 250 255 261 263 259 266 264 266 266 269 270 271 271 272 274 273 277 275 275 277 275 276 281 290 284 296 272 305 289 286 284
272 264 254 256 248 254 252 249 256 252 257 249 252 255 251 256 251 260 259 259 264 267 267 270 272 272 272 275 271 277 273 277 277 277 278 282 289 288 287 289 297 285 297 273 291
272 269 259 266 261 264 260 258 253 248 254 249 256 252 253 251 258 254 256 257 257 265 268 267 269 271 272 275 281 281 283 286 282 279 283 280 295 292 288 293 296 295 273 290 302
269 268 265 261 262 260 257 259 250 258 252 252 250 254 252 248 254 255 252 258 260 258 262 265 265 269 268 270 268 277 274 275 278 279 284 288 286 284 287 289 288 294 280 279 291
267 268 257 254 257 259 254 259 259 254 259 255 251 251 259 253 251 251 252 260 257 258 260 261 264 262 275 269 264 267 271 274 279 281 281 280 278 282 282 280 290 276 277 275 287
268 267 263 261 259 264 261 262 260 264 259 257 254 255 253 255 251 259 255 253 256 260 263 258 264 267 269 265 268 271 274 273 270 277 278 278 278 279 281 286 286 287 272 270 264
268 265 264 270 262 261 262 260 258 259 259 258 258 256 256 256 252 254 255 255 258 257 256 261 263 262 264 266 268 269 270 273 271 273 274 274 278 282 281 275 283 287 280 265 283
268 266 266 266 266 263 263 261 259 260 259 254 260 259 253 254 253 252 253 252 253 253 257 262 262 264 265 269 269 269 270 271 269 269 274 275 278 279 280 281 277 281 274 270 270
268 269 265 263 266 264 263 265 263 263 262 257 256 258 258 256 255 251 255 250 250 254 257 257 259 261 263 262 265 263 264 263 264 271 272 272 274 274 270 261 280 282 256 280 264
270 267 265 271 267 268 267 265 265 265 265 261 261 255 252 254 257 251 251 251 254 253 255 259 256 257 258 261 262 265 265 264 268 271 270 272 271 271 273 277 275 277 274 281 275
278 276 273 274 274 272 270 269 269 270 271 268 239 260 257 253 251 251 253 253 255 253 253 253 252 256 259 260 262 262 265 267 264 264 268 267 252 269 268 268 268 274 273 267 266
284 282 282 282 282 279 277 282 277 278 275 276 257 263 262 259 255 251 249 252 252 256 252 250 251 253 256 259 261 263 265 265 267 270 268 266 262 264 266 265 264 270 264 262 253
289 288 291 285 283 294 291 286 287 285 280 275 261 264 262 259 253 251 248 247 248 250 252 252 256 262 253 253 257 260 261 265 270 269 260 267 261 271 269 268 267 264 268 250 244
291 290 290 299 298 294 297 296 297 267 255 271 231 217 222 230 239 245 245 244 243 242 238 240 244 248 249 250 253 257 257 261 259 264 267 270 270 269 271 267 261 257 245 242 222
290 298 304 299 299 302 302 307 294 195 216 232 214 213 216 216 211 222 239 240 240 238 239 243 238 244 248 249 252 253 256 255 260 262 264 265 264 264 262 259 251 242 241 230 217
298 303 300 302 305 307 312 305 256 230 225 222 202 197 197 192 206 206 221 235 238 238 228 236 237 238 239 243 246 249 252 254 253 253 256 256 258 250 257 253 243 239 249 215 215
303 303 303 306 307 314 312 304 277 265 242 202 190 192 182 175 172 199 210 239 214 233 240 232 233 232 236 237 239 241 242 244 244 245 246 246 248 250 249 252 235 251 224 208 215
303 304 307 307 313 312 316 303 278 263 240 190 196 194 170 178 181 185 230 216 210 219 224 225 214 227 235 235 236 238 236 241 240 239 239 242 242 245 239 226 229 245 206 208 216
305 306 306 310 312 309 315 292 278 259 233 197 199 192 178 183 182 194 201 189 195 220 225 227 225 221 218 227 233 236 236 238 239 239 239 235 237 238 226 223 223 207 204 214 216
305 305 306 312 310 306 306 284 272 256 238 206 207 198 188 190 187 191 192 203 207 223 223 220 221 221 223 219 229 237 237 237 240 235 231 229 229 234 232 223 228 198 212 221 215
303 304 310 307 302 302 299 294 272 253 246 216 209 202 202 194 196 194 201 208 213 215 218 212 214 218 220 214 218 218 229 231 227 224 223 224 221 217 222 219 202 205 215 214 214
302 303 306 304 298 297 288 283 279 270 248 234 217 217 209 205 205 204 207 210 211 211 210 208 212 211 218 213 212 214 217 223 217 211 212 215 212 205 203 203 201 207 210 212 216